Regional Weather Roundup
Issued by NWS

Home | Current Version | Previous Version | Graphics & Text | Print | Product List | Glossary On
Versions: 1 2 3 4 5 6 7 8 9 10 11 12 13 14 15 16 17 18 19 20 21 22 23 24 25 26 27 28 29 30 31 32 33 34 35 36 37 38 39 40 41 42 43 44 45 46 47 48 49 50
538
ASUS43 KMPX 181110
RWRMN
WEATHER ROUNDUP FOR MINNESOTA
NATIONAL WEATHER SERVICE TWIN CITIES/CHANHASSEN MN
500 AM CST WED JAN 18 2017


NOTE: "FAIR" INDICATES FEW OR NO CLOUDS BELOW 12,000 FEET WITH NO
SIGNIFICANT WEATHER AND/OR OBSTRUCTIONS TO VISIBILITY. N/A MEANS
CURRENT SKY AND/OR WEATHER CONDITIONS ARE NOT AVAILABLE.

MNZ060>063-068>070-181200-
   Twin Cities Metro

CITY           SKY/WX    TMP DP  RH WIND       PRES   REMARKS
TWIN CITIES    CLOUDY    26  22  84 CALM      29.95S
ST PAUL        CLOUDY    26  25  96 S9        29.97S WCI  17
CRYSTAL        CLOUDY    28  22  78 S14       29.92F WCI  17
BLAINE         CLOUDY    28  27  93 S10       29.91F WCI  19
LAKEVILLE      CLOUDY    25  25 100 S9        29.95S FOG     WCI  15
EDEN PRAIRIE   CLOUDY    27  23  85 S13       29.93S FOG     WCI  16
SOUTH ST PAUL  CLOUDY    27  25  95 SE3       29.95F FOG
LAKE ELMO      FAIR      27  27 100 S10       29.96S WCI  17
$$
MNZ001>005-007-008-013>017-022>024-027-028-181200-
   Northwest Minnesota

CITY           SKY/WX    TMP DP  RH WIND       PRES   REMARKS
BEMIDJI        CLOUDY    27  19  74 SW8       29.70S WCI  18
HALLOCK        CLEAR     18  16  93 S13       29.63F WCI   4
ROSEAU         CLOUDY    21  16  79 S13       29.63F WCI   9
WARROAD        CLOUDY    21  18  86 SW7       29.65R WCI  13
THIEF RVR FALL CLOUDY    21  17  84 SW16      29.70R WCI   7
CROOKSTON      CLOUDY    19  16  86 S18       29.72R WCI   4
FOSSTON        CLOUDY    21  18  86 S14       29.72S WCI   8
DETROIT LAKES  CLOUDY    27  23  86 SW9       29.75F WCI  17
MOORHEAD       CLOUDY    19  16  86 S9        29.77F WCI   9
PARK RAPIDS    CLOUDY    17  11  77 S8        29.74F WCI   7
MAHNOMEN       FAIR      21  18  86 S10       29.74R WCI  10
$$
MNZ006-009>011-018-025>026-181200-
   North Central Minnesota

CITY           SKY/WX    TMP DP  RH WIND       PRES   REMARKS
BAUDETTE       CLOUDY    23  16  74 SW7       29.64S WCI  15
FLAG ISLAND    CLOUDY    19  16  86 SW10      29.62R WCI   8
INTL FALLS     CLOUDY    25  17  72 SW9       29.67R WCI  15
WASKISH        CLOUDY    25  19  80 SW5       29.68S WCI  19
BIG FORK       CLOUDY    27  19  74 SW13G18   29.69F WCI  16
LONGVILLE      CLEAR     21  18  86 S6        29.75F WCI  14
GRAND RAPIDS   CLOUDY    21  18  88 S7        29.77S WCI  12
CRANE LAKE     CLOUDY    25  18  74 S5        29.70F WCI  19
ORR            CLOUDY    25  16  68 S3        29.66F
COOK           CLOUDY    27  19  74 S8        29.70F WCI  18
WALKER         FAIR      24  19  78 SW10      29.73F WCI  14
$$
MNZ012-019>021-037-181200-
   Northeast Minnesota

CITY           SKY/WX    TMP DP  RH WIND       PRES   REMARKS
DULUTH         CLOUDY    24  22  91 SW15G24   29.77F WCI  11
ELY            CLOUDY    25  19  80 SW7       29.71R WCI  17
HIBBING        PTCLDY    20  18  92 VRB3      29.74F
EVELETH        CLOUDY    24  19  81 SW12G17   29.75F WCI  13
DULUTH HARBOR  CLOUDY    27  23  86 SW13      29.83F WCI  16
TWO HARBORS    CLOUDY    25  19  80 SW9       29.77S WCI  15
SILVER BAY     CLOUDY    19  18  93 SW6       29.75F WCI  11
GRAND MARAIS     N/A     32  28  85 W12G24    29.77F WCI  23
G MARAIS ARPRT CLEAR     21  18  86 S7        29.70F WCI  13
$$
MNZ029>031-032-039>041-046>048-054>057-064-181200-
   West Central Minnesota

CITY           SKY/WX    TMP DP  RH WIND       PRES   REMARKS
FERGUS FALLS   CLOUDY    21  18  86 SE8       29.83F WCI  12
WHEATON        CLOUDY    32  27  80 S6        29.80R WCI  26
MORRIS         CLOUDY    21  19  93 S10       29.80S WCI  10
ALEXANDRIA     CLOUDY    25  22  88 S14       29.80F WCI  13
ELBOW LAKE     FAIR      21  19  93 SE10      29.79F WCI  10
WADENA         CLOUDY    25  19  80 SW3       29.77R
GLENWOOD       CLOUDY    21  19  93 S7        29.83S WCI  13
APPLETON       CLOUDY    27  23  86 S7        29.83S WCI  19
ORTONVILLE     CLOUDY    28  21  74 CALM      29.80F
MADISON        CLOUDY    28  23  80 S13       29.83F WCI  18
WILLMAR        FAIR      21  21 100 CALM      29.88S
$$
MNZ033>034-036-042>043-049>051-058-059-181200-
   Central Minnesota

CITY           SKY/WX    TMP DP  RH WIND       PRES   REMARKS
ST CLOUD       CLOUDY    21  20  96 S6        29.87S WCI  13
SAUK CENTRE    FAIR      22  21  93 S7        29.83R WCI  14
PAYNESVILLE    CLOUDY    24  24 100 S9        29.87F WCI  14
AITKIN         CLOUDY    25  19  80 S8        29.79S WCI  16
PINE RIVER     CLOUDY    18  16  93 S5        29.81F WCI  11
BRAINERD       CLOUDY    22  20  92 S9        29.81S WCI  12
STAPLES        CLOUDY    19  18  93 CALM      29.79S
LONG PRAIRIE   FAIR      23  21  93 S8        29.81F WCI  14
LITTLE FALLS   CLOUDY    19  18  93 SE6       29.84R WCI  11
LITCHFIELD     CLOUDY    23  21  93 S3        29.89S
BUFFALO        CLOUDY    26  23  88 S9        29.92S WCI  17
MAPLE LAKE     CLOUDY    26  25  96 S9        29.90S WCI  16
HUTCHINSON     CLEAR     24  23  97 S7        29.91F FOG     WCI  15
$$
MNZ037-044-045-052-053-181200-
   East Central Minnesota

CITY           SKY/WX    TMP DP  RH WIND       PRES   REMARKS
PRINCETON      CLOUDY    25  23  93 S9        29.87F WCI  15
MORA           CLOUDY    25  23  93 S6        29.88F WCI  18
CAMBRIDGE      CLOUDY    28  21  74 S8        29.87F WCI  20
RUSH CITY      CLOUDY    27  25  93 S8        29.89F WCI  18
MOOSE LAKE     CLOUDY    28  27  93 S8        29.81F WCI  20
HINCKLEY       FAIR      28  27  93 S9        29.88S FOG     WCI  20
CLOQUET        CLOUDY    27  25  93 SW14G23   29.79F FOG     WCI  15
MCGREGOR       CLOUDY    27  23  86 S7        29.80F WCI  19
$$
MNZ071>073-080-081-089-090-097-098-181200-
   Southwest Minnesota

CITY           SKY/WX    TMP DP  RH WIND       PRES   REMARKS
MONTEVIDEO     CLOUDY    25  25 100 SW13      29.87F WCI  13
GRANITE FALLS  CLOUDY    25  22  89 S13       29.90S WCI  13
CANBY            N/A     32  26  78 CALM      29.87S
MARSHALL       CLOUDY    28  25  88 S9        29.89F WCI  19
REDWOOD FALLS  CLOUDY    25  21  85 S10       29.91F WCI  15
OLIVIA         CLOUDY    25  21  86 S9        29.89F WCI  15
PIPESTONE      CLOUDY    25  25 100 SW8       29.90F WCI  16
WINDOM         CLEAR     28  27  93 S10       29.92S WCI  19
WORTHINGTON    CLOUDY    29  26  89 S16       29.92S WCI  17
JACKSON        CLOUDY    28  27  93 SW10      29.93F WCI  19
TRACY          CLOUDY    31  27  88 SW15G21   29.89F WCI  20
SLAYTON        CLOUDY    27  25  94 SW15      29.91S WCI  15
$$
MNZ065>067-074>077-082>085-091>093-181200-
   South Central Minnesota

CITY           SKY/WX    TMP DP  RH WIND       PRES   REMARKS
MANKATO        CLOUDY    27  26  96 S13       29.96F WCI  16
NEW ULM        CLOUDY    23  21  93 S6        29.95R WCI  16
ST JAMES       CLOUDY    28  27  93 S9        29.95F WCI  20
FAIRMONT       CLEAR     28  27  96 S16       29.96F FOG     WCI  16
GLENCOE        CLOUDY    27  26  99 S10       29.92S FOG     WCI  17
FARIBAULT        N/A     27  25  93 S8        29.97F FOG     WCI  18
OWATONNA       CLOUDY    27  25  93 S14       29.97S FOG     WCI  15
WASECA         CLOUDY    28  27  93 S14       29.99F FOG     WCI  17
ALBERT LEA     CLOUDY    28  28 100 S6        29.99F FOG     WCI  22
$$
MNZ078>079-086>088-094>096-181200-
   Southeast Minnesota

CITY           SKY/WX    TMP DP  RH WIND       PRES   REMARKS
ROCHESTER      CLOUDY    26  26 100 S15       30.00S FOG     WCI  14
RED WING       PTCLDY    28  25  86 S5        29.99S WCI  23
STANTON        CLOUDY    28  25  88 S9        29.95F WCI  19
DODGE CENTER   CLOUDY    27  25  93 S7        29.98S FOG     WCI  19
WINONA         CLOUDY    32  30  93 SW7       30.04S WCI  26
AUSTIN         CLOUDY    27  27 100 S15       30.01F FOG     WCI  15
PRESTON        CLOUDY    27  26  96 SW10      30.03R FOG     WCI  18
$$
ABBREVIATIONS USED IN REMARKS
   TC - TEMPERATURES IN CELSIUS
  WCI - WIND CHILL INDEX
   HX - HEAT INDEX
  VSB - VISIBILITY
$$




USA.gov is the U.S. government's official web portal to all federal, state and local government web resources and services.